{"data":{"norad_id":67666,"epoch":"2026-05-25T01:26:31.559136Z","epoch_age_seconds":59939,"freshness":"FRESH","line1":"1 67666U 26022U   26145.06008749  .00014296  00000+0  44416-3 0  9998","line2":"2 67666  97.2838 178.2732 0001571  92.0844 268.0579 15.33455091 17271","mean_motion":15.33455091,"eccentricity":0.0001571,"inclination_deg":97.2838,"raan_deg":178.2732,"arg_perigee_deg":92.0844,"mean_anomaly_deg":268.0579,"bstar":0.00044416,"rev_number":1727,"period_min":93.905586701006,"perigee_km":464.43801348769,"apogee_km":466.58828836511,"semimajor_km":6843.6501509264,"source":"CELESTRAK","updated_at":"2026-05-25T13:38:21.660638Z"}}